QPF
0.00 0.00 0.00 0.00 0.00 0.00 0.00 0.00 0.00 0.00 0.00 0.00 0.00 0.00 0.00 0.00 0.00 0.00 0.00 0.01 0.00 0.00 0.00 0.00 0.00 0.00 0.00 0.01 0.01 0.02 0.02 0.02 0.01 0.02 0.02 0.01 0.01 0.01 0.01 0.01 0.01 0.01 0.01 0.00
0.00 0.00 0.00 0.00 0.00 0.01 0.01 0.00 0.00 0.00 0.00 0.00 0.00 0.00 0.00 0.00 0.01 0.01 0.01 0.01 0.00 0.00 0.00 0.00 0.00 0.01 0.00 0.01 0.01 0.01 0.01 0.01 0.01 0.01 0.01 0.01 0.01 0.01 0.01 0.01 0.01 0.01 0.01 0.00
0.00 0.00 0.00 0.00 0.00 0.01 0.01 0.00 0.00 0.00 0.00 0.00 0.00 0.00 0.01 0.01 0.00 0.00 0.00 0.00 0.01 0.01 0.00 0.00 0.00 0.00 0.00 0.00 0.00 0.00 0.00 0.00 0.00 0.00 0.00 0.00 0.00 0.00 0.00 0.01 0.01 0.01 0.01 0.00
0.00 0.00 0.00 0.00 0.00 0.01 0.01 0.00 0.00 0.00 0.00 0.01 0.01 0.01 0.01 0.01 0.00 0.00 0.00 0.01 0.01 0.00 0.00 0.00 0.00 0.00 0.00 0.00 0.00 0.00 0.00 0.00 0.00 0.00 0.00 0.00 0.00 0.00 0.01 0.01 0.01 0.01 0.01 0.01
0.01 0.00 0.00 0.00 0.00 0.00 0.00 0.00 0.00 0.00 0.00 0.00 0.00 0.01 0.01 0.00 0.00 0.00 0.00 0.00 0.01 0.01 0.01 0.01 0.01 0.00 0.00 0.00 0.00 0.00 0.00 0.00 0.00 0.00 0.00 0.00 0.00 0.00 0.01 0.01 0.01 0.02 0.02 0.02
0.01 0.01 0.00 0.00 0.00 0.00 0.00 0.00 0.00 0.00 0.00 0.00 0.00 0.01 0.00 0.00 0.00 0.00 0.01 0.01 0.02 0.02 0.02 0.01 0.01 0.01 0.01 0.01 0.01 0.01 0.00 0.00 0.00 0.00 0.01 0.01 0.01 0.01 0.02 0.03 0.04 0.04 0.03 0.02
0.01 0.01 0.00 0.00 0.00 0.00 0.00 0.00 0.00 0.00 0.00 0.01 0.01 0.01 0.00 0.01 0.01 0.01 0.01 0.02 0.03 0.03 0.02 0.02 0.01 0.01 0.00 0.00 0.01 0.01 0.00 0.01 0.01 0.01 0.01 0.01 0.02 0.03 0.05 0.06 0.06 0.06 0.05 0.04
0.01 0.01 0.00 0.00 0.00 0.01 0.01 0.00 0.00 0.00 0.01 0.01 0.00 0.00 0.01 0.01 0.02 0.01 0.01 0.02 0.03 0.03 0.03 0.03 0.02 0.01 0.01 0.01 0.01 0.01 0.01 0.01 0.01 0.01 0.01 0.01 0.01 0.02 0.03 0.05 0.06 0.08 0.09 0.08
0.02 0.01 0.00 0.00 0.01 0.01 0.01 0.00 0.01 0.01 0.01 0.01 0.01 0.01 0.01 0.02 0.02 0.02 0.02 0.02 0.02 0.02 0.02 0.02 0.02 0.02 0.01 0.01 0.01 0.01 0.01 0.00 0.01 0.01 0.01 0.01 0.01 0.02 0.03 0.04 0.04 0.04 0.06 0.06
0.02 0.02 0.01 0.01 0.01 0.01 0.00 0.01 0.01 0.01 0.01 0.02 0.02 0.01 0.02 0.02 0.01 0.01 0.01 0.01 0.01 0.01 0.01 0.01 0.01 0.01 0.01 0.02 0.01 0.01 0.01 0.00 0.00 0.01 0.01 0.02 0.02 0.03 0.03 0.04 0.05 0.06 0.06 0.03
0.02 0.02 0.02 0.01 0.01 0.01 0.01 0.02 0.02 0.02 0.02 0.03 0.03 0.03 0.02 0.02 0.01 0.01 0.01 0.01 0.01 0.01 0.01 0.01 0.02 0.01 0.01 0.01 0.01 0.01 0.01 0.01 0.01 0.01 0.02 0.02 0.04 0.05 0.06 0.06 0.06 0.06 0.06 0.05
0.01 0.01 0.01 0.01 0.01 0.01 0.01 0.02 0.03 0.03 0.03 0.02 0.02 0.03 0.03 0.03 0.02 0.02 0.01 0.01 0.01 0.01 0.01 0.01 0.01 0.01 0.01 0.02 0.02 0.02 0.02 0.02 0.02 0.03 0.03 0.04 0.05 0.06 0.06 0.05 0.06 0.06 0.06 0.07
0.02 0.03 0.01 0.01 0.01 0.01 0.01 0.01 0.03 0.05 0.06 0.04 0.04 0.04 0.04 0.04 0.04 0.03 0.03 0.04 0.03 0.02 0.01 0.02 0.01 0.01 0.01 0.02 0.03 0.03 0.03 0.02 0.03 0.04 0.05 0.05 0.06 0.06 0.07 0.07 0.07 0.06 0.05 0.04
0.02 0.01 0.02 0.01 0.01 0.01 0.01 0.01 0.02 0.04 0.07 0.07 0.05 0.05 0.04 0.04 0.06 0.05 0.04 0.05 0.04 0.03 0.02 0.02 0.02 0.02 0.02 0.02 0.03 0.03 0.03 0.02 0.03 0.04 0.05 0.06 0.07 0.06 0.06 0.07 0.07 0.06 0.04 0.03
0.01 0.01 0.01 0.02 0.02 0.02 0.03 0.03 0.03 0.05 0.06 0.06 0.06 0.07 0.10 0.10 0.09 0.07 0.05 0.05 0.06 0.05 0.06 0.04 0.02 0.01 0.02 0.02 0.01 0.01 0.02 0.02 0.02 0.02 0.03 0.03 0.04 0.03 0.02 0.03 0.04 0.05 0.04 0.03
0.01 0.00 0.00 0.01 0.03 0.05 0.05 0.05 0.05 0.06 0.07 0.07 0.09 0.11 0.13 0.16 0.13 0.09 0.06 0.05 0.05 0.05 0.05 0.07 0.06 0.03 0.02 0.02 0.01 0.01 0.01 0.01 0.01 0.01 0.01 0.01 0.02 0.01 0.01 0.01 0.01 0.02 0.02 0.02
0.01 0.01 0.00 0.01 0.03 0.05 0.04 0.04 0.04 0.05 0.06 0.07 0.09 0.13 0.11 0.08 0.07 0.06 0.05 0.04 0.04 0.04 0.03 0.02 0.03 0.03 0.02 0.02 0.01 0.01 0.01 0.01 0.02 0.01 0.01 0.01 0.01 0.01 0.01 0.01 0.01 0.01 0.01 0.01
0.01 0.00 0.00 0.01 0.01 0.02 0.02 0.02 0.03 0.03 0.04 0.06 0.08 0.08 0.07 0.05 0.06 0.06 0.05 0.05 0.04 0.04 0.03 0.02 0.02 0.02 0.01 0.02 0.01 0.01 0.01 0.01 0.01 0.01 0.01 0.01 0.01 0.00 0.00 0.00 0.00 0.01 0.01 0.01
0.01 0.01 0.01 0.01 0.01 0.01 0.01 0.02 0.02 0.03 0.03 0.04 0.05 0.06 0.06 0.06 0.07 0.08 0.06 0.05 0.04 0.03 0.03 0.02 0.02 0.01 0.01 0.01 0.01 0.02 0.01 0.01 0.01 0.02 0.02 0.02 0.01 0.01 0.01 0.01 0.01 0.01 0.01 0.01
0.01 0.01 0.01 0.01 0.01 0.01 0.02 0.02 0.02 0.03 0.03 0.04 0.04 0.04 0.05 0.07 0.08 0.08 0.08 0.07 0.05 0.04 0.03 0.03 0.02 0.02 0.02 0.02 0.02 0.02 0.02 0.02 0.02 0.02 0.04 0.04 0.04 0.03 0.03 0.03 0.03 0.02 0.02 0.02
0.03 0.01 0.01 0.01 0.01 0.02 0.02 0.02 0.02 0.02 0.02 0.02 0.02 0.02 0.03 0.04 0.05 0.06 0.06 0.06 0.06 0.06 0.05 0.04 0.04 0.04 0.05 0.05 0.04 0.03 0.03 0.03 0.04 0.04 0.05 0.06 0.06 0.07 0.06 0.05 0.05 0.05 0.05 0.05
0.02 0.02 0.02 0.02 0.02 0.02 0.02 0.02 0.02 0.01 0.01 0.01 0.01 0.02 0.02 0.03 0.03 0.04 0.04 0.04 0.04 0.04 0.04 0.04 0.04 0.05 0.06 0.05 0.04 0.04 0.04 0.05 0.06 0.05 0.05 0.04 0.03 0.05 0.05 0.04 0.04 0.04 0.04 0.06
0.03 0.03 0.02 0.02 0.01 0.01 0.01 0.02 0.02 0.01 0.01 0.02 0.02 0.02 0.02 0.02 0.03 0.03 0.03 0.03 0.03 0.03 0.03 0.03 0.04 0.05 0.05 0.05 0.06 0.06 0.07 0.05 0.05 0.05 0.03 0.03 0.02 0.03 0.03 0.04 0.04 0.04 0.04 0.05
0.02 0.02 0.02 0.01 0.01 0.01 0.01 0.01 0.01 0.01 0.01 0.02 0.02 0.02 0.03 0.03 0.03 0.04 0.03 0.03 0.03 0.03 0.03 0.03 0.04 0.05 0.07 0.07 0.07 0.08 0.07 0.05 0.05 0.05 0.04 0.03 0.03 0.03 0.03 0.03 0.04 0.04 0.04 0.06
0.01 0.02 0.02 0.01 0.01 0.01 0.01 0.00 0.00 0.00 0.01 0.01 0.01 0.02 0.02 0.02 0.02 0.03 0.02 0.02 0.02 0.03 0.03 0.04 0.04 0.04 0.04 0.04 0.05 0.06 0.07 0.07 0.07 0.05 0.04 0.04 0.04 0.03 0.03 0.03 0.03 0.03 0.03 0.04
0.01 0.01 0.01 0.01 0.01 0.01 0.01 0.01 0.00 0.00 0.00 0.01 0.01 0.02 0.02 0.03 0.02 0.03 0.02 0.01 0.01 0.02 0.02 0.02 0.02 0.02 0.02 0.03 0.04 0.04 0.05 0.08 0.07 0.04 0.03 0.03 0.03 0.03 0.03 0.03 0.03 0.03 0.03 0.03
0.02 0.02 0.01 0.01 0.01 0.01 0.01 0.01 0.01 0.01 0.01 0.01 0.02 0.02 0.02 0.02 0.03 0.03 0.02 0.02 0.02 0.01 0.01 0.02 0.02 0.02 0.02 0.02 0.02 0.02 0.03 0.05 0.07 0.05 0.03 0.02 0.02 0.02 0.02 0.02 0.02 0.03 0.04 0.04
MSLP
1010.59 1011.16 1011.76 1012.31 1012.77 1013.06 1013.14 1012.97 1012.55 1011.93 1011.15 1010.32 1009.53 1008.87 1008.40 1008.16 1008.14 1008.30 1008.60 1008.95 1009.29 1009.58 1009.79 1009.94 1010.05 1010.16 1010.32 1010.55 1010.88 1011.28 1011.73 1012.19 1012.62 1012.96 1013.20 1013.34 1013.39 1013.39 1013.36 1013.35 1013.39 1013.49 1013.64 1013.82
1011.09 1011.62 1012.11 1012.53 1012.83 1012.96 1012.90 1012.65 1012.20 1011.61 1010.93 1010.23 1009.59 1009.08 1008.72 1008.55 1008.54 1008.67 1008.87 1009.10 1009.31 1009.47 1009.58 1009.64 1009.69 1009.77 1009.90 1010.12 1010.43 1010.81 1011.23 1011.64 1012.02 1012.32 1012.52 1012.62 1012.64 1012.61 1012.57 1012.54 1012.55 1012.62 1012.74 1012.89
1011.86 1012.32 1012.70 1012.98 1013.13 1013.13 1012.97 1012.65 1012.19 1011.64 1011.04 1010.45 1009.92 1009.50 1009.21 1009.05 1009.01 1009.07 1009.17 1009.27 1009.36 1009.41 1009.43 1009.43 1009.44 1009.49 1009.61 1009.81 1010.09 1010.43 1010.79 1011.15 1011.46 1011.70 1011.85 1011.90 1011.89 1011.83 1011.76 1011.70 1011.68 1011.70 1011.77 1011.87
1012.85 1013.19 1013.45 1013.60 1013.62 1013.51 1013.28 1012.93 1012.48 1011.97 1011.44 1010.93 1010.47 1010.10 1009.83 1009.65 1009.55 1009.51 1009.50 1009.50 1009.48 1009.45 1009.40 1009.36 1009.35 1009.39 1009.49 1009.67 1009.92 1010.20 1010.50 1010.79 1011.02 1011.20 1011.29 1011.30 1011.25 1011.16 1011.06 1010.97 1010.90 1010.86 1010.87 1010.89
1013.90 1014.12 1014.25 1014.27 1014.19 1014.01 1013.73 1013.38 1012.96 1012.50 1012.04 1011.59 1011.18 1010.83 1010.54 1010.32 1010.15 1010.01 1009.90 1009.80 1009.71 1009.61 1009.53 1009.47 1009.45 1009.48 1009.57 1009.72 1009.92 1010.15 1010.39 1010.60 1010.77 1010.87 1010.91 1010.89 1010.81 1010.70 1010.57 1010.44 1010.32 1010.22 1010.14 1010.08
1014.88 1014.97 1014.97 1014.89 1014.74 1014.51 1014.23 1013.89 1013.52 1013.13 1012.72 1012.33 1011.96 1011.61 1011.30 1011.03 1010.79 1010.57 1010.38 1010.20 1010.05 1009.91 1009.81 1009.74 1009.71 1009.74 1009.81 1009.94 1010.09 1010.26 1010.43 1010.58 1010.68 1010.74 1010.75 1010.70 1010.61 1010.48 1010.33 1010.16 1009.99 1009.82 1009.65 1009.48
1015.67 1015.64 1015.54 1015.38 1015.18 1014.94 1014.67 1014.38 1014.07 1013.74 1013.41 1013.06 1012.72 1012.38 1012.05 1011.73 1011.43 1011.15 1010.90 1010.67 1010.47 1010.31 1010.19 1010.12 1010.09 1010.10 1010.15 1010.24 1010.34 1010.46 1010.56 1010.65 1010.72 1010.74 1010.73 1010.68 1010.58 1010.45 1010.28 1010.08 1009.86 1009.62 1009.36 1009.09
1016.23 1016.10 1015.92 1015.71 1015.49 1015.26 1015.03 1014.79 1014.54 1014.29 1014.01 1013.71 1013.39 1013.06 1012.71 1012.36 1012.02 1011.69 1011.40 1011.13 1010.91 1010.74 1010.60 1010.52 1010.47 1010.46 1010.47 1010.51 1010.56 1010.62 1010.67 1010.72 1010.75 1010.76 1010.74 1010.70 1010.61 1010.48 1010.31 1010.09 1009.82 1009.51 1009.17 1008.81
1016.58 1016.38 1016.16 1015.93 1015.70 1015.49 1015.30 1015.11 1014.92 1014.72 1014.49 1014.22 1013.92 1013.58 1013.22 1012.85 1012.48 1012.13 1011.80 1011.52 1011.27 1011.08 1010.93 1010.82 1010.74 1010.68 1010.65 1010.63 1010.63 1010.63 1010.64 1010.65 1010.66 1010.66 1010.65 1010.62 1010.55 1010.43 1010.25 1010.01 1009.71 1009.36 1008.95 1008.51
1016.81 1016.58 1016.33 1016.09 1015.87 1015.68 1015.51 1015.36 1015.20 1015.02 1014.81 1014.55 1014.25 1013.90 1013.53 1013.14 1012.75 1012.37 1012.03 1011.72 1011.46 1011.24 1011.06 1010.91 1010.79 1010.68 1010.59 1010.51 1010.44 1010.38 1010.35 1010.33 1010.33 1010.33 1010.33 1010.32 1010.26 1010.15 1009.98 1009.73 1009.41 1009.01 1008.56 1008.08
1017.03 1016.78 1016.53 1016.28 1016.06 1015.88 1015.71 1015.55 1015.39 1015.20 1014.97 1014.69 1014.37 1014.00 1013.60 1013.18 1012.78 1012.39 1012.02 1011.70 1011.42 1011.17 1010.95 1010.75 1010.56 1010.39 1010.23 1010.08 1009.95 1009.85 1009.77 1009.73 1009.72 1009.72 1009.74 1009.73 1009.69 1009.60 1009.43 1009.18 1008.84 1008.43 1007.95 1007.44
1017.32 1017.07 1016.81 1016.55 1016.32 1016.11 1015.91 1015.71 1015.50 1015.25 1014.97 1014.64 1014.27 1013.86 1013.43 1013.00 1012.57 1012.16 1011.79 1011.45 1011.13 1010.85 1010.58 1010.33 1010.08 1009.84 1009.61 1009.39 1009.20 1009.05 1008.95 1008.88 1008.87 1008.88 1008.90 1008.91 1008.89 1008.80 1008.64 1008.39 1008.05 1007.63 1007.16 1006.65
1017.71 1017.45 1017.18 1016.90 1016.63 1016.36 1016.10 1015.83 1015.53 1015.21 1014.85 1014.45 1014.02 1013.56 1013.10 1012.64 1012.20 1011.78 1011.39 1011.03 1010.69 1010.38 1010.06 1009.75 1009.44 1009.13 1008.84 1008.57 1008.33 1008.14 1008.01 1007.94 1007.92 1007.94 1007.98 1008.00 1007.99 1007.91 1007.76 1007.51 1007.18 1006.78 1006.32 1005.84
1018.14 1017.87 1017.57 1017.26 1016.94 1016.61 1016.26 1015.90 1015.51 1015.09 1014.64 1014.17 1013.68 1013.18 1012.69 1012.21 1011.77 1011.35 1010.95 1010.58 1010.23 1009.88 1009.52 1009.17 1008.80 1008.44 1008.09 1007.78 1007.51 1007.30 1007.16 1007.08 1007.07 1007.10 1007.15 1007.19 1007.19 1007.13 1006.98 1006.76 1006.45 1006.07 1005.64 1005.19
1018.51 1018.23 1017.91 1017.56 1017.19 1016.79 1016.37 1015.91 1015.44 1014.94 1014.41 1013.88 1013.35 1012.83 1012.33 1011.86 1011.42 1011.01 1010.63 1010.26 1009.89 1009.52 1009.14 1008.74 1008.34 1007.94 1007.55 1007.21 1006.92 1006.70 1006.56 1006.50 1006.50 1006.55 1006.62 1006.67 1006.69 1006.65 1006.53 1006.32 1006.04 1005.69 1005.30 1004.88
1018.74 1018.45 1018.11 1017.74 1017.33 1016.88 1016.40 1015.89 1015.35 1014.80 1014.24 1013.69 1013.15 1012.63 1012.15 1011.71 1011.30 1010.92 1010.55 1010.20 1009.83 1009.45 1009.05 1008.63 1008.20 1007.78 1007.38 1007.02 1006.73 1006.52 1006.39 1006.34 1006.36 1006.43 1006.52 1006.60 1006.64 1006.62 1006.52 1006.34 1006.08 1005.77 1005.41 1005.04
1018.76 1018.47 1018.13 1017.76 1017.34 1016.88 1016.38 1015.86 1015.31 1014.76 1014.21 1013.67 1013.16 1012.69 1012.26 1011.87 1011.50 1011.17 1010.83 1010.50 1010.15 1009.77 1009.36 1008.93 1008.49 1008.06 1007.65 1007.30 1007.02 1006.82 1006.71 1006.68 1006.72 1006.81 1006.92 1007.02 1007.08 1007.08 1007.00 1006.85 1006.62 1006.34 1006.02 1005.68
1018.56 1018.30 1017.99 1017.65 1017.26 1016.83 1016.37 1015.88 1015.38 1014.87 1014.37 1013.90 1013.46 1013.06 1012.70 1012.37 1012.07 1011.79 1011.50 1011.19 1010.86 1010.49 1010.09 1009.66 1009.22 1008.79 1008.39 1008.05 1007.78 1007.60 1007.50 1007.49 1007.55 1007.65 1007.77 1007.88 1007.95 1007.96 1007.90 1007.77 1007.57 1007.31 1007.00 1006.69
1018.23 1018.02 1017.77 1017.49 1017.18 1016.82 1016.44 1016.03 1015.61 1015.19 1014.78 1014.40 1014.06 1013.74 1013.47 1013.22 1012.98 1012.75 1012.50 1012.23 1011.92 1011.56 1011.17 1010.76 1010.33 1009.91 1009.53 1009.20 1008.95 1008.78 1008.69 1008.69 1008.74 1008.84 1008.96 1009.06 1009.13 1009.14 1009.08 1008.95 1008.76 1008.50 1008.21 1007.89
1017.89 1017.75 1017.58 1017.40 1017.18 1016.93 1016.65 1016.35 1016.04 1015.73 1015.43 1015.16 1014.90 1014.68 1014.48 1014.30 1014.12 1013.93 1013.72 1013.48 1013.19 1012.85 1012.48 1012.08 1011.68 1011.28 1010.92 1010.61 1010.37 1010.20 1010.12 1010.10 1010.14 1010.21 1010.30 1010.38 1010.42 1010.40 1010.33 1010.19 1009.98 1009.72 1009.42 1009.09
1017.67 1017.62 1017.55 1017.47 1017.36 1017.22 1017.06 1016.87 1016.67 1016.47 1016.27 1016.08 1015.91 1015.76 1015.63 1015.49 1015.35 1015.20 1015.01 1014.79 1014.52 1014.20 1013.86 1013.49 1013.11 1012.74 1012.40 1012.11 1011.88 1011.71 1011.61 1011.57 1011.57 1011.60 1011.64 1011.66 1011.65 1011.60 1011.48 1011.31 1011.08 1010.80 1010.47 1010.11
1017.69 1017.71 1017.74 1017.75 1017.74 1017.71 1017.64 1017.55 1017.44 1017.32 1017.20 1017.09 1016.97 1016.87 1016.77 1016.66 1016.54 1016.40 1016.22 1016.01 1015.76 1015.47 1015.16 1014.82 1014.48 1014.14 1013.83 1013.56 1013.33 1013.16 1013.03 1012.95 1012.90 1012.87 1012.84 1012.79 1012.71 1012.60 1012.43 1012.21 1011.94 1011.62 1011.26 1010.87
1017.96 1018.06 1018.16 1018.25 1018.32 1018.36 1018.36 1018.34 1018.29 1018.22 1018.14 1018.06 1017.97 1017.88 1017.79 1017.68 1017.56 1017.42 1017.25 1017.05 1016.82 1016.56 1016.28 1015.98 1015.68 1015.38 1015.10 1014.85 1014.63 1014.44 1014.29 1014.16 1014.05 1013.94 1013.83 1013.70 1013.54 1013.35 1013.12 1012.85 1012.54 1012.18 1011.78 1011.35
1018.47 1018.63 1018.78 1018.91 1019.02 1019.10 1019.14 1019.15 1019.12 1019.07 1019.00 1018.92 1018.83 1018.73 1018.62 1018.50 1018.37 1018.22 1018.05 1017.86 1017.64 1017.41 1017.16 1016.91 1016.65 1016.39 1016.15 1015.91 1015.70 1015.50 1015.31 1015.13 1014.95 1014.77 1014.58 1014.37 1014.13 1013.87 1013.58 1013.26 1012.90 1012.51 1012.08 1011.62
1019.14 1019.32 1019.49 1019.64 1019.76 1019.84 1019.88 1019.89 1019.86 1019.80 1019.71 1019.61 1019.50 1019.38 1019.24 1019.10 1018.95 1018.79 1018.62 1018.43 1018.23 1018.03 1017.81 1017.59 1017.37 1017.15 1016.93 1016.72 1016.50 1016.29 1016.07 1015.84 1015.61 1015.36 1015.09 1014.81 1014.51 1014.19 1013.84 1013.48 1013.09 1012.68 1012.23 1011.76
1019.85 1020.03 1020.20 1020.34 1020.44 1020.50 1020.52 1020.50 1020.44 1020.36 1020.25 1020.12 1019.98 1019.83 1019.68 1019.51 1019.34 1019.17 1018.99 1018.81 1018.62 1018.43 1018.24 1018.05 1017.85 1017.66 1017.46 1017.25 1017.03 1016.80 1016.55 1016.29 1016.00 1015.70 1015.38 1015.04 1014.69 1014.32 1013.95 1013.56 1013.15 1012.73 1012.28 1011.81
1020.48 1020.65 1020.80 1020.91 1020.98 1021.00 1020.99 1020.94 1020.86 1020.75 1020.61 1020.47 1020.31 1020.14 1019.96 1019.79 1019.60 1019.42 1019.24 1019.05 1018.86 1018.68 1018.49 1018.31 1018.12 1017.93 1017.72 1017.51 1017.28 1017.03 1016.75 1016.46 1016.14 1015.80 1015.44 1015.07 1014.69 1014.30 1013.91 1013.51 1013.10 1012.69 1012.25 1011.78
Thickness
5747 5756 5760 5763 5763 5761 5760 5757 5752 5763 5768 5787 5797 5802 5806 5809 5809 5809 5809 5808 5807 5807 5806 5804 5802 5800 5799 5796 5794 5791 5787 5783 5780 5778 5776 5774 5770 5768 5766 5763 5761 5758 5755 5753
5740 5750 5754 5755 5762 5763 5765 5765 5765 5770 5774 5794 5799 5802 5803 5804 5805 5805 5806 5808 5808 5807 5804 5803 5801 5799 5797 5794 5792 5789 5785 5782 5780 5776 5773 5771 5768 5765 5763 5760 5758 5755 5753 5750
5720 5736 5744 5738 5757 5761 5764 5769 5768 5765 5779 5789 5791 5795 5798 5801 5803 5805 5807 5807 5807 5806 5805 5802 5801 5798 5795 5792 5789 5785 5782 5780 5777 5774 5771 5768 5766 5762 5759 5757 5755 5752 5750 5747
5706 5721 5714 5742 5767 5769 5765 5767 5771 5775 5781 5785 5790 5795 5799 5800 5801 5802 5805 5805 5805 5805 5803 5801 5800 5797 5793 5790 5785 5781 5778 5776 5774 5771 5768 5765 5761 5759 5756 5754 5751 5748 5746 5744
5693 5700 5714 5741 5759 5762 5758 5759 5773 5773 5778 5783 5788 5791 5792 5800 5802 5802 5803 5804 5804 5804 5801 5798 5795 5792 5788 5784 5780 5777 5774 5772 5771 5768 5765 5761 5758 5755 5753 5750 5747 5745 5742 5739
5689 5695 5699 5734 5760 5767 5760 5748 5772 5773 5774 5777 5779 5770 5781 5796 5798 5798 5799 5799 5798 5798 5796 5792 5790 5787 5782 5777 5774 5772 5771 5769 5767 5764 5761 5758 5755 5752 5750 5746 5743 5741 5737 5735
5686 5691 5706 5738 5754 5759 5735 5743 5768 5771 5773 5773 5772 5777 5787 5792 5792 5793 5792 5792 5792 5791 5789 5787 5785 5781 5775 5771 5769 5769 5767 5765 5762 5759 5756 5754 5751 5748 5745 5741 5738 5735 5733 5730
5680 5685 5701 5738 5744 5740 5743 5757 5764 5767 5771 5771 5774 5778 5782 5784 5784 5785 5784 5784 5784 5782 5780 5780 5779 5775 5770 5766 5766 5764 5761 5758 5756 5754 5752 5750 5745 5742 5739 5735 5731 5729 5727 5725
5691 5699 5719 5730 5736 5744 5747 5750 5757 5761 5766 5768 5769 5772 5774 5775 5776 5777 5776 5776 5776 5774 5772 5772 5771 5769 5765 5763 5761 5758 5754 5752 5750 5748 5746 5744 5740 5737 5733 5729 5726 5723 5721 5719
5690 5703 5715 5723 5731 5738 5744 5747 5754 5759 5762 5764 5764 5766 5767 5768 5768 5768 5768 5767 5766 5765 5763 5763 5764 5763 5761 5759 5756 5752 5748 5745 5744 5741 5738 5736 5734 5731 5727 5723 5720 5718 5715 5714
5685 5698 5707 5718 5724 5731 5737 5743 5747 5752 5756 5758 5759 5759 5760 5760 5760 5760 5760 5759 5758 5757 5756 5755 5756 5755 5754 5752 5749 5745 5742 5739 5737 5734 5731 5728 5725 5723 5721 5719 5717 5714 5712 5709
5681 5694 5698 5707 5719 5724 5728 5733 5737 5742 5746 5749 5751 5751 5752 5751 5751 5750 5750 5750 5748 5747 5747 5747 5747 5746 5745 5744 5742 5738 5735 5732 5730 5727 5724 5721 5718 5715 5713 5712 5710 5708 5706 5703
5685 5693 5697 5705 5711 5717 5720 5724 5729 5732 5735 5737 5740 5742 5742 5741 5741 5741 5740 5740 5739 5738 5738 5737 5737 5737 5737 5736 5733 5731 5728 5726 5724 5721 5718 5714 5711 5708 5705 5703 5701 5699 5697 5695
5683 5686 5689 5696 5701 5708 5712 5716 5719 5722 5725 5728 5729 5730 5731 5731 5731 5730 5729 5730 5729 5729 5729 5729 5728 5728 5728 5727 5724 5722 5720 5718 5716 5713 5711 5708 5704 5701 5697 5695 5692 5691 5689 5686
5678 5682 5685 5691 5694 5698 5702 5705 5707 5709 5712 5714 5717 5718 5719 5719 5718 5719 5720 5720 5719 5719 5719 5719 5718 5718 5719 5717 5714 5712 5711 5709 5707 5704 5702 5699 5696 5692 5689 5686 5684 5682 5680 5678
5672 5676 5679 5681 5684 5688 5691 5693 5695 5697 5700 5702 5704 5705 5706 5707 5707 5708 5709 5710 5709 5709 5709 5709 5709 5709 5709 5707 5705 5703 5701 5700 5697 5694 5691 5689 5686 5683 5680 5678 5676 5673 5671 5669
5663 5666 5669 5671 5675 5678 5681 5684 5686 5688 5690 5692 5693 5694 5695 5696 5696 5698 5699 5701 5701 5700 5700 5700 5700 5700 5699 5697 5695 5692 5691 5690 5687 5685 5682 5679 5677 5674 5672 5669 5667 5665 5662 5660
5663 5666 5668 5668 5669 5670 5672 5675 5678 5679 5680 5683 5683 5684 5684 5684 5685 5687 5688 5690 5689 5688 5689 5691 5691 5690 5689 5687 5684 5682 5681 5680 5677 5674 5672 5669 5667 5665 5662 5660 5658 5655 5653 5650
5658 5660 5662 5663 5664 5664 5665 5666 5668 5670 5671 5672 5673 5674 5675 5675 5677 5677 5678 5678 5677 5677 5679 5681 5680 5679 5677 5676 5674 5672 5670 5669 5666 5664 5662 5659 5657 5655 5652 5650 5648 5646 5643 5639
5652 5654 5655 5656 5657 5658 5658 5659 5660 5660 5661 5662 5663 5663 5664 5665 5667 5667 5667 5666 5666 5667 5669 5670 5669 5668 5667 5666 5665 5663 5661 5658 5655 5654 5652 5650 5648 5645 5643 5641 5639 5636 5633 5629
5644 5646 5647 5648 5649 5650 5651 5652 5652 5652 5653 5654 5654 5654 5654 5655 5656 5657 5656 5655 5657 5657 5658 5659 5659 5658 5657 5656 5655 5653 5651 5648 5646 5645 5643 5640 5638 5636 5634 5631 5628 5626 5622 5619
5635 5638 5639 5640 5641 5641 5643 5644 5644 5645 5645 5645 5646 5646 5646 5646 5647 5647 5647 5647 5649 5649 5649 5650 5650 5649 5648 5647 5645 5644 5642 5640 5638 5635 5633 5631 5629 5626 5624 5621 5619 5616 5613 5610
5629 5630 5632 5632 5633 5634 5636 5636 5636 5637 5637 5637 5637 5637 5638 5638 5638 5638 5637 5639 5641 5641 5642 5642 5641 5640 5638 5638 5636 5635 5633 5631 5629 5626 5624 5622 5620 5618 5615 5612 5609 5606 5603 5600
5621 5623 5624 5625 5626 5626 5626 5628 5629 5629 5629 5629 5630 5631 5630 5630 5630 5630 5631 5632 5632 5633 5633 5632 5632 5631 5630 5629 5628 5626 5624 5622 5620 5618 5616 5613 5611 5608 5605 5602 5599 5596 5593 5590
5614 5615 5616 5617 5617 5618 5619 5620 5620 5620 5621 5621 5622 5623 5623 5624 5624 5623 5624 5624 5624 5624 5624 5623 5623 5622 5621 5620 5619 5617 5615 5613 5611 5609 5607 5604 5601 5599 5596 5593 5590 5587 5583 5580
5606 5607 5608 5610 5611 5612 5612 5612 5612 5613 5614 5613 5614 5615 5615 5616 5616 5615 5615 5616 5616 5615 5615 5614 5614 5613 5612 5611 5610 5608 5606 5604 5602 5600 5598 5595 5592 5590 5587 5584 5581 5577 5574 5570
5600 5601 5602 5603 5604 5605 5606 5606 5606 5606 5607 5607 5607 5607 5607 5608 5608 5608 5608 5607 5607 5606 5606 5606 5605 5604 5603 5602 5600 5598 5596 5594 5593 5591 5588 5586 5584 5581 5578 5575 5572 5568 5564 5561